sat.trackr.live / text

‹ back to catalog

KUIPER-00117

NORAD 65949 · 2025-228C

PAYLOAD ACTIVE UNKNOWN

§ Identity

Operator
Country
US
Launch date
2025-10-14
Launch site
AFETR
Launch vehicle
Mass (kg)
RCS (m²)

External: N2YO · Heavens-Above · Gunter

§ Orbital elements

Epoch: 2026-09-20T14:08:20.199552Z

Period
97.30 min
Inclination
51.8993°
Eccentricity
0.0000636
Mean motion
14.79941831 rev/d
Perigee alt
629.1 km
Apogee alt
630.0 km
Semi-major
7,007.6 km
B*
2.1052e-4
RAAN
216.2161°
Arg perigee
47.8130°
Mean anomaly
312.2886°
Rev number
5,212

§ Raw data

KUIPER-001171 65949U 25228C   26263.58912268  .00001384  00000+0  21052-3 0  99902 65949  51.8993 216.2161 0000636  47.8130 312.2886 14.79941831 52124

JSON: /api/v1/satellites/65949 · /tle

For live sub-satellite position, see the globe view (requires WebGL).

§ Visibility from observer

Set your observer location to see the next 7 days of passes ≥ 10°. The values pass through the URL so the page stays shareable.

No JS? Fill the form by hand. The geolocation button needs JavaScript.